Details for FedEx at PANC




Go Back


Latest METAR
Local Time

PANC 220953Z 00000KT 10SM -RA FEW013 OVC050 11/09 A2966 RMK AO2 SLP044 P0005 T01060089
22/09/2018, 01:59:07

Description
Results
FedEx Logo
Number of Pilots based at PANC
0 Pilots Based here
Number of FedEx Flights Departed from PANC
0 Flights Departed
Number of FedEx Flights Arrived at PANC
0 Flights Arrived
Number of FedEx Schedules Departing from PANC
69 Schedules
Number of FedEx Schedules Arriving at PANC
68 Schedules
Number of FedEx Schedules Departing from PANC availible today
18 Schedules Today
Number of FedEx Schedules Arriving at PANC availible today
18 Schedules Today
Average Landing Rate at PANC
-294 fpm
FedEx Average Landing Rate at PANC
0 fpm
Total Fuel Purchased at PANC by FedEx
0.00 kgs / 0.00 lbs

Pilots Based at PANC


Pilot ID
Pilot Name
Pilot Rank
No. of Flights
No. of Flying Hours
There are no pilots assigned to this hub!   Will you be the first?
Content